Bethelridge, Kentucky
Current Conditions -  °F | °C
As of 4:55 PM on Saturday 25 Oct 2014 (Local Time) from KSME Reporting Station
Clear Clear  
Wind Chill: 68°   Ceiling: Unl
Heat Index: 68°   Visibility: 10mi
Dew Point: 54°   Wind: 6mph
Humidity: 60%   Direction: 260°W
Pressure: 30.01"   Gusts: NA
Location:  37.21°N, 84.79°W
Report Text: KSME 252055Z AUTO 26005KT 10SM CLR 20/12 A3001 RMK AO2
Loading
Personal Weather Stations






























Interactive Weather Map
Tropical Storm Tracking
New forecast layout! Learn more

10-Day Weather Forecast

Advertisements
Track Severe Weather on mobile